This is the latest recevied weather packets stored in our database for station/object AC1IX. If no packets are shown the sender has not sent any weather packets the latest 10 day(s).
| Time | Temp. | Humidity | Pressure | Rain* | Wind** | Luminosity | Snow |
|---|---|---|---|---|---|---|---|
| 1777586309 | 10° C | 94% | 1007.9 hPa | 0 mm | - | 23 W/m² | - |
| 1777586007 | 10° C | 91% | 1007.7 hPa | 0 mm | - | 24 W/m² | - |
| 1777585702 | 9.44° C | 91% | 1007.9 hPa | 0 mm | - | 27 W/m² | - |
| 1777583892 | 10° C | 98% | 1007.3 hPa | 0 mm | - | 49 W/m² | - |
| 1777579950 | 9.44° C | 99% | 1007.3 hPa | 0 mm | - | 79 W/m² | - |
| 1777579645 | 9.44° C | 99% | 1007.1 hPa | 0 mm | - | 107 W/m² | - |
| 1777578735 | 9.44° C | 99% | 1007.1 hPa | 0 mm | - | 75 W/m² | - |
| 1777578435 | 9.44° C | 99% | 1007.1 hPa | 0 mm | - | 61 W/m² | - |
| 1777577826 | 9.44° C | 99% | 1007.2 hPa | 0 mm | - | 85 W/m² | - |
| 1777577522 | 9.44° C | 99% | 1007.1 hPa | 0 mm | - | 81 W/m² | - |
| 1777575699 | 9.44° C | 99% | 1007 hPa | 0 mm | - | 114 W/m² | - |
| 1777575091 | 9.44° C | 99% | 1006.9 hPa | 0 mm | - | 104 W/m² | - |
| 1777574485 | 9.44° C | 99% | 1007.2 hPa | 0 mm | - | 116 W/m² | - |
| 1777572963 | 10° C | 99% | 1007.3 hPa | 0 mm | - | 152 W/m² | - |
| 1777572659 | 9.44° C | 99% | 1007.3 hPa | 0 mm | - | 177 W/m² | - |
| 1777572359 | 9.44° C | 99% | 1007.2 hPa | 0 mm | - | 94 W/m² | - |
| 1777571755 | 8.89° C | 99% | 1007.3 hPa | 0 mm | - | 113 W/m² | - |
| 1777570239 | 9.44° C | 99% | 1007.5 hPa | 0 mm | - | 147 W/m² | - |
| 1777569939 | 9.44° C | 99% | 1007.7 hPa | 0 mm | - | 158 W/m² | - |
| 1777568119 | 9.44° C | 99% | 1007.7 hPa | 0 mm | - | 212 W/m² | - |
| 1777567512 | 9.44° C | 99% | 1007.8 hPa | 1.27 mm | - | 238 W/m² | - |
| 1777566908 | 8.89° C | 99% | 1007.7 hPa | 0 mm | - | 252 W/m² | - |
| 1777566000 | 7.78° C | 99% | 1007.7 hPa | 0 mm | - | 193 W/m² | - |
| 1777565695 | 7.78° C | 99% | 1008 hPa | 0 mm | - | 116 W/m² | - |
| 1777564784 | 8.33° C | 99% | 1007.9 hPa | 0 mm | - | 80 W/m² | - |
* Rain latest hour (hover to see other rain measurements)
** Current wind speed in m/s (hover to see current wind gust speed)